Weather in Velikaya Mikhajlovka

Ukraine / Odesa District     47°04′42″N   29°51′12″E
temp.,
°C
wind,
m/s
gust,
m/s
humid.,
%
clouds,
%
prec.,
mm/h
press.,
hPa
HPBL,
m
15 may, sat
sat1500:00+12ssw33817 0.1 100924
03:00+11ssw228456 0.1 101015
06:00+11sw11830 0.0 101110
09:00+17sw34615 0.0 1011423
12:00+21wsw44435 0.0 10121630
15:00+23sw343780 0.0 10112448
18:00+21e024714 0.0 1011534
21:00+17s256599 0.0 1012131
16 may, sun
sun1600:00+15sse356968 0.0 1012130
03:00+12se227879 0.0 101212
06:00+12e1178100 0.0 101210
09:00+18se346098 0.0 1012402
12:00+22ese4543100 0.0 10111269
15:00+24se4439100 0.0 10102031
18:00+20s5759100 0.0 1009402
21:00+18wnw2262100 0.0 100833
17 may, mon
mon1700:00+18n345899 0.0 100752
03:00+17n3560100 0.0 1006111
06:00+16nnw2369100 0.0 100551
09:00+18ne3373100 0.0 1006498
12:00+22w345460 0.8 10051371
15:00+22w765181 1.6 10041563
18:00+22wnw56544 0.4 10041500
21:00+17w11710 0.5 100511
18 may, tue
tue1800:00+16sse337416 0.0 100641
03:00+14sse467311 0.1 100588
06:00+14sw3685100 0.8 1005139
09:00+17nw68728 0.8 1006575
12:00+20nw665669 0.0 10081384
15:00+20wnw665676 1.0 10091631
18:00+19nw35608 1.2 1009565
21:00+14nw337829 1.7 101034
19 may, wed
wed1900:00+13nw117598 0.0 101110
03:00+13nne117999 0.0 101110
06:00+12nw2495100 2.7 1011130
09:00+15ne3379100 5.1 1011531
12:00+15e2275100 0.4 1011564
15:00+17e1267100 1.1 1011649
18:00+17ene2471100 0.7 1010744
21:00+13ne2486100 3.6 101076